Kokomo, IN

11:23 AM EDT on April 27, 2017 (GMT -0400)
Kokomo Municipal

Weather History for KOKK - January, 2013

Change the Weather History Date:

Tuesday, January 29, 2013

  Actual Average (KGUS) Record (KGUS)
Temperature  
Mean Temperature 54 °F -  
Max Temperature 60 °F 31 °F 59 °F (2013)
Min Temperature 48 °F 18 °F -6 °F (2014)
Degree Days  
Heating Degree Days 11    
Growing Degree Days 4 (Base 50)    
Moisture  
Dew Point 53 °F    
Average Humidity 92    
Maximum Humidity 100    
Minimum Humidity 82    
Precipitation  
Precipitation 0.01 in - - ()
Sea Level Pressure  
Sea Level Pressure 29.72 in    
Wind  
Wind Speed 16 mph (South)    
Max Wind Speed 26 mph    
Max Gust Speed 32 mph    
Visibility 7 miles    
Events Thunderstorm    
Averages and records for this station are not official NWS values.
T = Trace of Precipitation, MM = Missing Value Source: NWS Daily Summary

Daily Weather History Graph

Daily Weather History Graph

Search for Another Location

Airport or City:

Trip Planner

Search our weather history database for the weather conditions in past years. The results will help you decide how hot, cold, wet, or windy it might be!

Date:

Astronomy

Jan. 29, 2013 Rise Set
Actual Time 6:56 AM CST 4:59 PM CST
Civil Twilight 6:27 AM CST 5:28 PM CST
Nautical Twilight 5:54 AM CST 6:00 PM CST
Astronomical Twilight 5:22 AM CST 6:33 PM CST
Moon 7:55 PM CST (1/29) 7:52 AM CST (1/29)
Length of Visible Light 11h 00m
Length of Day
10h 02m
Waning Gibbous, 93% of the Moon is Illuminated
Jan 29
Waning Gibbous
Feb 3
Last Quarter
Feb 10
New
Feb 17
First Quarter
Feb 25
Full

Hourly Weather History & Observations

Time (CST) Temp. Dew Point Humidity Pressure Visibility Wind Dir Wind Speed Gust Speed Precip Events Conditions
12:15 AM 48.2 °F 46.4 °F 93% 29.93 in 0.5 mi South 12.7 mph - N/A   Overcast
12:35 AM 48.2 °F 48.2 °F 100% 29.92 in 0.2 mi South 11.5 mph - N/A   Overcast
12:55 AM 48.2 °F 48.2 °F 100% 29.92 in 0.5 mi South 12.7 mph - N/A   Overcast
1:15 AM 48.2 °F 46.4 °F 93% 29.91 in 0.5 mi South 10.4 mph - N/A   Overcast
1:35 AM 50.0 °F 50.0 °F 100% 29.91 in 0.5 mi South 10.4 mph - N/A   Overcast
1:55 AM 50.0 °F 50.0 °F 100% 29.91 in 0.2 mi South 10.4 mph - N/A   Overcast
2:15 AM 50.0 °F 50.0 °F 100% 29.90 in 0.5 mi South 11.5 mph - N/A   Overcast
2:35 AM 50.0 °F 48.2 °F 94% 29.89 in 1.5 mi South 10.4 mph - N/A   Overcast
2:55 AM 50.0 °F 50.0 °F 100% 29.88 in 1.8 mi South 11.5 mph - N/A   Overcast
3:15 AM 50.0 °F 50.0 °F 100% 29.88 in 2.0 mi South 11.5 mph - N/A   Overcast
3:35 AM 51.8 °F 50.0 °F 94% 29.87 in 4.0 mi SSW 13.8 mph 18.4 mph N/A   Overcast
3:55 AM 51.8 °F 51.8 °F 100% 29.86 in 5.0 mi South 15.0 mph - N/A   Overcast
4:15 AM 51.8 °F 50.0 °F 94% 29.84 in 5.0 mi South 17.3 mph - N/A   Overcast
4:35 AM 51.8 °F 51.8 °F 100% 29.85 in 6.0 mi SSW 19.6 mph - N/A   Overcast
4:55 AM 53.6 °F 51.8 °F 94% 29.84 in 7.0 mi SSW 20.7 mph - N/A   Overcast
5:15 AM 53.6 °F 51.8 °F 94% 29.84 in 7.0 mi SSW 21.9 mph - N/A   Overcast
5:35 AM 53.6 °F 51.8 °F 94% 29.84 in 6.0 mi SSW 17.3 mph 25.3 mph N/A   Overcast
5:55 AM 53.6 °F 51.8 °F 94% 29.84 in 5.0 mi SSW 19.6 mph - N/A   Overcast
6:15 AM 53.6 °F 53.6 °F 100% 29.84 in 5.0 mi SSW 18.4 mph - N/A   Overcast
6:35 AM 53.6 °F 53.6 °F 100% 29.84 in 5.0 mi SSW 19.6 mph - N/A   Overcast
6:55 AM 53.6 °F 53.6 °F 100% 29.83 in 5.0 mi SSW 18.4 mph 25.3 mph N/A   Overcast
7:15 AM 55.4 °F 53.6 °F 94% 29.82 in 5.0 mi SSW 18.4 mph 24.2 mph N/A   Overcast
7:35 AM 55.4 °F 53.6 °F 94% 29.83 in 5.0 mi SSW 19.6 mph 27.6 mph N/A   Overcast
7:55 AM 55.4 °F 53.6 °F 94% 29.82 in 5.0 mi SSW 20.7 mph 27.6 mph N/A   Overcast
8:15 AM 55.4 °F 55.4 °F 100% 29.81 in 5.0 mi SSW 21.9 mph 29.9 mph N/A   Overcast
8:35 AM 55.4 °F 55.4 °F 100% 29.81 in 5.0 mi SSW 15.0 mph - N/A   Overcast
8:55 AM 57.2 °F 55.4 °F 94% 29.81 in 5.0 mi SSW 20.7 mph 26.5 mph N/A   Overcast
9:15 AM 57.2 °F 55.4 °F 94% 29.82 in 6.0 mi SW 18.4 mph - N/A   Overcast
9:35 AM 57.2 °F 55.4 °F 94% 29.82 in 7.0 mi SSW 20.7 mph 26.5 mph N/A   Overcast
9:55 AM 57.2 °F 57.2 °F 100% 29.82 in 8.0 mi SW 21.9 mph - N/A   Overcast
10:15 AM 59.0 °F 55.4 °F 88% 29.82 in 8.0 mi SW 20.7 mph 27.6 mph N/A   Overcast
10:35 AM 59.0 °F 55.4 °F 88% 29.81 in 9.0 mi SSW 17.3 mph 28.8 mph N/A   Overcast
10:55 AM 59.0 °F 55.4 °F 88% 29.80 in 8.0 mi SSW 17.3 mph 24.2 mph N/A   Overcast
11:15 AM 59.0 °F 55.4 °F 88% 29.80 in 9.0 mi SSW 18.4 mph 28.8 mph N/A   Overcast
11:35 AM 59.0 °F 55.4 °F 88% 29.79 in 8.0 mi SW 20.7 mph 25.3 mph N/A   Overcast
11:55 AM 59.0 °F 55.4 °F 88% 29.77 in 9.0 mi SSW 18.4 mph 26.5 mph N/A Thunderstorm Overcast
12:15 PM 59.0 °F 55.4 °F 88% 29.76 in 9.0 mi SSW 23.0 mph 29.9 mph N/A   Overcast
12:35 PM 60.8 °F 55.4 °F 82% 29.75 in 9.0 mi SSW 21.9 mph 28.8 mph N/A   Overcast
12:55 PM 60.8 °F 55.4 °F 82% 29.74 in 8.0 mi SSW 19.6 mph 31.1 mph N/A   Overcast
1:15 PM 60.8 °F 55.4 °F 82% 29.73 in 8.0 mi SSW 20.7 mph 28.8 mph N/A   Overcast
1:35 PM 59.0 °F 55.4 °F 88% 29.73 in 8.0 mi SSW 18.4 mph 29.9 mph N/A   Overcast
1:55 PM 59.0 °F 55.4 °F 88% 29.71 in 8.0 mi SSW 17.3 mph 28.8 mph N/A   Overcast
2:15 PM 60.8 °F 55.4 °F 82% 29.70 in 10.0 mi SSW 19.6 mph 25.3 mph N/A   Overcast
2:35 PM 59.0 °F 55.4 °F 88% 29.71 in 10.0 mi South 17.3 mph 21.9 mph N/A   Overcast
2:55 PM 59.0 °F 55.4 °F 88% 29.70 in 10.0 mi South 15.0 mph - N/A   Overcast
3:15 PM 59.0 °F 55.4 °F 88% 29.69 in 10.0 mi South 12.7 mph - N/A   Overcast
3:35 PM 57.2 °F 53.6 °F 88% 29.67 in 4.0 mi SSE 15.0 mph - N/A   Overcast
3:55 PM 57.2 °F 53.6 °F 88% 29.66 in 5.0 mi South 17.3 mph - N/A   Overcast
4:15 PM 57.2 °F 53.6 °F 88% 29.67 in 6.0 mi South 15.0 mph - N/A   Overcast
4:35 PM 57.2 °F 53.6 °F 88% 29.66 in 6.0 mi South 13.8 mph 20.7 mph N/A   Overcast
4:55 PM 55.4 °F 53.6 °F 94% 29.65 in 6.0 mi South 16.1 mph - N/A   Overcast
5:15 PM 55.4 °F 53.6 °F 94% 29.65 in 7.0 mi South 15.0 mph - N/A   Overcast
5:35 PM 55.4 °F 53.6 °F 94% 29.65 in 8.0 mi South 15.0 mph - N/A   Overcast
5:55 PM 55.4 °F 53.6 °F 94% 29.64 in 8.0 mi South 13.8 mph - N/A   Overcast
6:15 PM 55.4 °F 53.6 °F 94% 29.62 in 8.0 mi South 15.0 mph - N/A   Scattered Clouds
6:35 PM 55.4 °F 53.6 °F 94% 29.60 in 9.0 mi South 17.3 mph - N/A   Partly Cloudy
6:55 PM 55.4 °F 53.6 °F 94% 29.58 in 10.0 mi South 18.4 mph - N/A   Mostly Cloudy
7:15 PM 55.4 °F 53.6 °F 94% 29.57 in 10.0 mi South 19.6 mph 26.5 mph N/A   Mostly Cloudy
7:35 PM 55.4 °F 53.6 °F 94% 29.56 in 10.0 mi South 21.9 mph - N/A   Mostly Cloudy
7:55 PM 57.2 °F 53.6 °F 88% 29.55 in 10.0 mi South 20.7 mph 27.6 mph N/A   Partly Cloudy
8:15 PM 57.2 °F 53.6 °F 88% 29.54 in 10.0 mi South 20.7 mph 28.8 mph N/A   Clear
8:35 PM 57.2 °F 53.6 °F 88% 29.52 in 10.0 mi South 19.6 mph 27.6 mph N/A   Clear
8:55 PM 57.2 °F 53.6 °F 88% 29.50 in 8.0 mi South 23.0 mph 26.5 mph 0.01 in   Mostly Cloudy
9:15 PM 57.2 °F 55.4 °F 94% 29.49 in 10.0 mi South 18.4 mph - N/A   Mostly Cloudy
9:35 PM 57.2 °F 55.4 °F 94% 29.46 in 10.0 mi South 18.4 mph - N/A   Scattered Clouds
9:55 PM 57.2 °F 53.6 °F 88% 29.43 in 10.0 mi South 18.4 mph 24.2 mph N/A   Scattered Clouds
10:15 PM 57.2 °F 55.4 °F 94% 29.41 in 10.0 mi South 18.4 mph - N/A   Clear
10:35 PM 57.2 °F 55.4 °F 94% 29.40 in 10.0 mi South 19.6 mph - N/A   Partly Cloudy
10:55 PM 59.0 °F 55.4 °F 88% 29.38 in 10.0 mi South 19.6 mph 25.3 mph N/A   Partly Cloudy
11:15 PM 60.8 °F 55.4 °F 82% 29.36 in 10.0 mi South 21.9 mph 27.6 mph N/A   Scattered Clouds
11:35 PM 60.8 °F 57.2 °F 88% 29.33 in 10.0 mi South 23.0 mph 32.2 mph N/A   Scattered Clouds
11:55 PM 60.8 °F 57.2 °F 88% 29.32 in 10.0 mi South 26.5 mph - N/A   Scattered Clouds